Selinsgrove, PA

2:32 PM EDT on June 25, 2017 (GMT -0400)
Penn Valley

Weather History for KSEG - August, 2013

Change the Weather History Date:

Friday, August 16, 2013

  Actual Average (KIPT) Record (KIPT)
Temperature  
Mean Temperature 63 °F -  
Max Temperature 79 °F 80 °F 96 °F (1995)
Min Temperature 48 °F 59 °F 47 °F (1927)
Degree Days  
Heating Degree Days 2    
Growing Degree Days 13 (Base 50)    
Moisture  
Dew Point 52 °F    
Average Humidity 79    
Maximum Humidity 100    
Minimum Humidity 36    
Precipitation  
Precipitation 0.00 in - - ()
Sea Level Pressure  
Sea Level Pressure 30.18 in    
Wind  
Wind Speed 0 mph (ESE)    
Max Wind Speed 5 mph    
Max Gust Speed -    
Visibility 7 miles    
Events Fog    
Averages and records for this station are not official NWS values.
T = Trace of Precipitation, MM = Missing Value Source: NWS Daily Summary

Daily Weather History Graph

Daily Weather History Graph

Search for Another Location

Airport or City:

Trip Planner

Search our weather history database for the weather conditions in past years. The results will help you decide how hot, cold, wet, or windy it might be!

Date:

Astronomy

Aug. 16, 2013 Rise Set
Actual Time 6:18 AM EDT 8:03 PM EDT
Civil Twilight 5:49 AM EDT 8:33 PM EDT
Nautical Twilight 5:13 AM EDT 9:08 PM EDT
Astronomical Twilight 4:35 AM EDT 9:46 PM EDT
Moon 4:21 PM EDT (8/16) 1:18 AM EDT (8/16)
Length of Visible Light 14h 43m
Length of Day
13h 45m
Waxing Gibbous, 74% of the Moon is Illuminated
Aug 16
Waxing Gibbous
Aug 20
Full
Aug 28
Last Quarter
Sep 5
New
Sep 12
First Quarter

Hourly Weather History & Observations

Time (EDT) Temp. Dew Point Humidity Pressure Visibility Wind Dir Wind Speed Gust Speed Precip Events Conditions
1:53 AM 50.0 °F 48.9 °F 96% 30.16 in 8.0 mi Calm Calm - N/A   Clear
2:53 AM 50.0 °F 48.0 °F 93% 30.15 in 8.0 mi Calm Calm - N/A   Clear
3:53 AM 50.0 °F 48.0 °F 93% 30.16 in 8.0 mi Calm Calm - N/A   Clear
4:53 AM 48.9 °F 46.9 °F 93% 30.16 in 8.0 mi Calm Calm - N/A   Clear
5:53 AM 50.0 °F 48.0 °F 93% 30.17 in 7.0 mi Calm Calm - N/A   Scattered Clouds
6:00 AM 50.0 °F 48.2 °F 94% 30.17 in 7.0 mi Calm Calm - N/A   Mostly Cloudy
6:43 AM 51.8 °F 51.8 °F 100% 30.18 in 0.8 mi Calm Calm - N/A   Overcast
6:53 AM 52.0 °F 51.1 °F 97% 30.19 in 0.2 mi Calm Calm - N/A Fog Fog
7:53 AM 54.0 °F 53.1 °F 97% 30.20 in 0.2 mi Calm Calm - N/A Fog Fog
8:53 AM 55.0 °F 54.0 °F 96% 30.21 in 0.2 mi Calm Calm - N/A Fog Fog
9:02 AM 55.4 °F 53.6 °F 94% 30.21 in 2.0 mi Calm Calm - N/A   Overcast
9:10 AM 55.4 °F 55.4 °F 100% 30.20 in 4.0 mi Calm Calm - N/A   Overcast
9:36 AM 57.2 °F 55.4 °F 94% 30.20 in 8.0 mi Calm Calm - N/A   Partly Cloudy
9:53 AM 61.0 °F 57.0 °F 87% 30.20 in 10.0 mi Calm Calm - N/A   Clear
10:53 AM 68.0 °F 55.9 °F 65% 30.20 in 10.0 mi Calm Calm - N/A   Clear
11:53 AM 73.0 °F 55.9 °F 55% 30.19 in 10.0 mi Calm Calm - N/A   Clear
12:53 PM 73.0 °F 51.1 °F 46% 30.19 in 10.0 mi Calm Calm - N/A   Clear
1:53 PM 77.0 °F 51.1 °F 40% 30.18 in 10.0 mi SE 4.6 mph - N/A   Clear
2:53 PM 78.1 °F 50.0 °F 37% 30.17 in 10.0 mi ESE 3.5 mph - N/A   Clear
3:53 PM 78.1 °F 48.9 °F 36% 30.16 in 10.0 mi ENE 3.5 mph - N/A   Clear
4:53 PM 78.1 °F 48.9 °F 36% 30.16 in 10.0 mi Calm Calm - N/A   Clear
5:53 PM 77.0 °F 50.0 °F 39% 30.16 in 10.0 mi Calm Calm - N/A   Clear
6:53 PM 71.1 °F 55.9 °F 59% 30.17 in 10.0 mi SSE 3.5 mph - N/A   Clear
7:53 PM 63.0 °F 59.0 °F 87% 30.17 in 10.0 mi Calm Calm - N/A   Clear
8:53 PM 59.0 °F 55.9 °F 90% 30.19 in 10.0 mi Calm Calm - N/A   Clear
9:53 PM 55.9 °F 54.0 °F 93% 30.20 in 10.0 mi Calm Calm - N/A   Clear
10:53 PM 55.0 °F 53.1 °F 93% 30.20 in 10.0 mi Calm Calm - N/A   Clear
11:53 PM 53.1 °F 52.0 °F 96% 30.22 in 7.0 mi Calm Calm - N/A   Clear